Wind_Speed
25 23 21 19 17 15 14 12 12 12 13 12 12 11 12 11 12 12 11 12 14 15 18 20 21 23 23 22 23 24 26 26 26 26 27 28 30 30 30 30 32 33 34
26 25 23 22 20 18 16 13 11 10 11 12 13 13 12 13 13 11 12 12 14 15 16 18 21 23 25 27 29 30 30 30 29 29 30 30 30 31 33 34 35 35 33
27 26 25 24 21 19 17 16 15 14 15 15 15 15 16 15 16 15 16 18 20 21 22 23 26 28 31 34 32 31 32 33 34 34 33 33 34 34 34 35 36 38 37
28 27 27 25 21 19 18 18 18 18 18 18 18 18 19 19 19 20 22 24 24 24 25 26 27 28 29 29 28 30 33 35 36 36 37 37 36 38 38 37 38 38 40
29 28 27 24 21 20 21 21 20 20 20 20 21 21 22 23 23 25 26 25 25 26 27 28 29 30 29 27 27 26 26 28 30 33 36 37 37 36 38 42 48 40 44
27 27 26 24 23 23 22 22 22 20 20 20 22 23 24 25 26 27 27 28 27 27 28 28 27 25 27 29 28 29 28 28 30 31 33 35 35 34 36 37 38 47 47
27 27 26 25 24 25 23 22 21 22 21 21 22 25 26 27 28 28 28 24 25 25 25 24 27 31 33 35 36 34 35 36 33 32 30 33 34 33 33 33 33 36 41
30 28 26 25 25 25 23 23 22 22 21 22 22 22 21 23 24 21 19 22 26 28 27 31 32 31 33 35 33 33 34 36 37 38 37 35 33 32 33 34 34 35 38
31 28 26 25 25 24 24 24 23 23 24 24 22 19 10 10 22 27 25 29 31 32 33 33 29 31 33 33 34 35 35 35 35 36 36 38 38 35 34 36 34 34 34
35 32 30 28 28 26 26 24 24 25 25 23 22 22 21 22 16 22 34 36 36 35 33 32 34 32 30 32 34 34 35 38 39 40 39 37 35 37 39 37 34 33 32
30 30 31 33 29 25 23 25 27 26 25 24 24 22 22 22 23 23 33 38 40 39 37 35 30 33 33 33 32 32 31 30 33 35 40 41 38 35 35 37 34 32 32
34 34 32 30 29 29 29 29 27 26 26 24 23 22 23 23 25 24 25 32 36 41 37 37 34 28 28 31 31 31 32 32 31 33 34 38 40 36 35 33 35 35 31
36 36 33 34 31 31 30 28 28 25 23 23 22 23 24 24 26 28 30 34 32 37 37 33 32 30 27 25 30 34 35 35 36 36 36 36 35 33 31 32 34 34 29
36 35 32 31 33 32 30 26 24 23 23 22 22 23 23 24 26 28 29 31 35 29 32 22 34 26 27 31 35 30 31 31 33 32 33 35 36 33 29 31 29 27 26
34 35 35 35 35 32 28 24 22 22 22 22 22 22 24 25 26 27 26 26 26 16 26 27 27 34 35 34 34 34 33 29 28 29 28 28 29 33 30 27 24 23 23
38 41 39 37 33 29 25 23 23 21 20 20 20 23 24 24 24 24 24 24 24 25 21 32 38 38 38 38 36 36 34 35 28 23 25 26 27 28 30 27 23 23 24
40 44 41 36 31 27 25 21 20 19 19 19 21 22 23 23 23 23 23 24 24 25 29 36 37 39 40 37 36 31 31 30 27 23 22 25 26 26 27 26 25 21 22
45 41 37 31 27 23 21 20 18 18 18 20 20 20 21 22 22 22 22 22 23 23 26 37 39 40 39 36 34 34 29 25 23 21 21 23 22 23 24 26 24 24 20
44 37 27 27 24 23 21 18 17 17 18 19 19 19 19 19 19 21 20 20 20 23 27 33 40 39 38 38 37 32 26 24 22 20 19 18 18 20 21 25 26 22 24
37 32 28 27 24 21 19 16 15 15 16 17 18 17 16 16 18 20 18 17 19 23 27 32 36 39 39 38 36 33 27 23 22 16 14 13 14 14 16 21 21 22 24
33 27 29 26 22 20 17 15 14 14 15 16 15 14 15 16 19 16 16 16 19 24 27 29 33 35 38 38 33 28 25 20 13 13 14 14 13 13 12 15 25 21 18
32 30 28 24 22 19 16 14 14 14 13 13 13 13 14 16 15 15 14 16 20 23 24 23 27 31 34 32 28 21 19 15 18 16 19 19 20 18 14 18 21 25 17
35 32 29 25 22 18 16 15 13 11 10 11 12 14 14 13 14 14 15 17 18 18 16 18 22 23 29 25 20 13 8 9 16 17 19 17 19 15 12 11 19 18 15
35 32 29 25 21 18 15 14 11 10 9 11 13 14 11 11 12 13 15 16 15 14 13 11 15 17 19 17 12 11 10 13 13 15 15 11 13 13 14 4 11 12 11
36 32 27 23 19 17 15 12 9 10 11 12 13 11 11 10 11 13 14 14 12 10 6 8 11 13 13 12 12 9 12 14 14 14 10 6 9 13 8 5 6 12 23
36 32 27 22 18 14 11 10 11 12 10 11 10 10 10 10 12 11 12 12 12 11 9 6 7 8 9 10 9 8 9 9 13 9 9 1 7 4 16 20 20 18 26
Wind_Direction
231 233 232 233 237 239 238 237 246 246 244 249 255 258 258 261 272 282 281 272 274 283 282 279 281 285 289 291 291 292 293 294 295 296 294 288 280 275 271 267 259 259 261
233 235 236 237 238 239 238 242 242 249 242 245 253 264 267 275 291 279 284 285 283 287 286 285 286 288 290 290 289 289 289 289 289 288 287 286 284 281 276 271 268 270 267
235 237 238 238 240 241 239 242 239 242 245 248 259 262 274 279 281 278 281 286 286 286 287 286 285 284 284 284 283 283 284 286 288 287 286 284 283 280 278 274 270 271 271
233 236 238 238 239 237 240 243 244 251 253 253 259 265 268 272 275 275 282 288 290 290 286 283 282 282 282 284 283 280 277 275 276 278 281 282 283 282 278 275 273 271 270
227 232 236 237 235 238 242 244 247 254 257 263 265 266 264 267 271 278 284 288 287 286 285 284 283 282 284 286 287 288 285 281 278 275 274 275 279 279 278 276 272 268 269
220 225 228 230 235 241 242 243 248 251 255 263 260 260 261 269 275 278 281 283 283 283 283 286 288 289 290 291 288 287 282 282 285 281 277 278 280 279 277 277 274 273 272
221 223 226 229 235 239 245 250 249 246 246 252 257 261 266 270 274 277 280 282 284 288 291 290 291 290 288 285 285 284 283 281 277 272 282 288 282 282 281 287 285 276 273
222 223 226 230 236 238 237 236 239 243 244 256 260 268 282 283 281 283 286 289 292 289 284 285 288 286 289 289 289 287 285 282 279 277 275 273 274 277 280 281 283 282 278
220 223 225 233 238 238 240 241 242 246 251 260 260 263 275 276 290 293 289 291 291 295 293 293 291 294 295 293 288 285 282 281 281 281 279 276 274 275 278 281 283 286 286
223 230 222 229 236 237 240 245 246 252 252 251 261 267 272 275 287 296 293 295 296 297 299 298 300 301 300 295 293 291 286 281 277 276 279 282 281 276 276 276 282 286 284
217 221 219 227 229 234 243 248 247 245 249 258 264 268 277 279 280 277 285 294 297 298 302 302 306 306 300 296 297 295 292 288 287 280 274 276 280 277 274 274 278 284 285
216 221 221 226 230 233 236 236 235 244 253 262 269 275 279 284 287 287 283 292 297 302 305 306 309 308 304 301 297 301 301 297 291 285 279 274 274 275 275 276 278 279 279
215 220 223 225 229 232 231 232 241 247 254 260 267 274 279 284 287 290 291 295 296 297 305 307 310 312 309 306 307 302 296 291 287 284 280 278 273 273 275 273 274 276 276
219 219 220 229 228 226 230 235 245 249 258 268 273 278 283 286 288 290 291 293 299 303 304 308 312 317 319 310 304 305 300 293 289 285 281 280 272 269 271 271 271 272 272
227 221 221 223 219 224 231 239 245 253 259 267 275 283 287 287 288 290 290 291 293 296 303 306 311 313 313 315 317 318 313 302 293 289 293 287 279 265 261 263 258 258 260
224 218 219 215 222 226 231 237 243 251 261 270 279 284 287 289 288 289 290 289 290 288 285 298 308 314 319 319 321 320 313 305 299 295 294 287 279 273 259 255 258 247 256
225 220 211 215 216 227 229 233 244 253 264 276 280 284 287 289 290 289 290 290 291 292 297 306 313 316 317 319 322 324 322 319 308 297 293 286 278 275 261 249 258 238 249
215 208 220 212 221 222 229 239 246 256 269 275 281 286 287 288 290 291 292 291 295 303 308 309 317 322 323 323 326 325 323 321 319 312 309 294 283 274 267 241 246 234 244
212 207 208 217 222 227 232 239 249 263 272 279 283 283 282 287 292 293 294 300 308 312 315 316 320 326 329 333 331 328 326 327 329 322 314 305 293 277 268 236 237 238 244
209 202 210 216 217 221 230 243 256 266 272 275 276 278 284 292 295 294 302 309 316 320 322 323 326 331 332 336 330 328 328 330 328 329 339 328 318 308 272 234 234 238 239
205 212 209 211 215 223 231 240 253 261 267 271 275 281 288 294 293 303 307 316 322 324 324 329 329 332 334 334 332 327 327 331 333 334 337 343 319 301 295 244 227 235 242
205 204 209 211 216 221 227 243 255 259 264 270 274 281 289 292 301 302 305 316 322 323 324 327 329 334 335 336 333 330 331 339 339 340 337 336 335 321 296 254 229 238 235
203 206 208 211 215 218 230 245 255 253 255 265 272 279 287 298 298 299 304 309 315 317 318 321 327 339 341 342 334 341 355 345 337 335 330 329 332 330 313 268 210 244 238
204 206 206 209 210 219 231 242 239 242 252 260 270 278 293 297 301 305 308 312 316 318 322 332 334 344 353 3 14 20 3 349 344 330 333 334 342 349 339 237 209 229 242
201 204 207 207 213 222 229 234 233 240 246 256 269 286 287 297 307 310 314 318 327 325 314 329 341 341 349 358 358 355 3 5 349 341 351 344 49 47 22 55 188 198 179
203 201 201 204 209 216 219 223 237 245 249 260 276 279 287 295 307 312 317 327 336 332 329 317 321 334 342 352 351 358 355 352 349 334 348 79 99 28 61 85 114 146 167
Height
1523 1526 1529 1531 1533 1534 1535 1536 1537 1538 1538 1539 1540 1540 1540 1540 1541 1541 1541 1542 1543 1543 1543 1543 1542 1541 1540 1539 1538 1538 1537 1537 1537 1536 1536 1535 1535 1535 1535 1536 1537 1537 1537
1521 1523 1525 1528 1530 1531 1532 1533 1534 1535 1536 1537 1537 1538 1538 1538 1538 1538 1539 1539 1539 1539 1538 1538 1538 1537 1536 1535 1534 1533 1532 1531 1530 1530 1529 1529 1528 1528 1528 1529 1529 1529 1529
1516 1519 1521 1523 1526 1528 1530 1531 1531 1532 1533 1534 1535 1535 1536 1536 1536 1536 1536 1536 1535 1535 1534 1533 1532 1531 1530 1529 1528 1527 1526 1525 1524 1523 1522 1521 1520 1521 1521 1521 1521 1520 1521
1511 1514 1517 1519 1523 1525 1526 1528 1529 1530 1530 1531 1532 1533 1533 1533 1533 1534 1533 1532 1532 1531 1529 1528 1527 1525 1523 1522 1520 1520 1519 1519 1517 1516 1515 1514 1513 1512 1512 1513 1513 1513 1513
1507 1509 1512 1515 1519 1521 1522 1524 1526 1527 1527 1528 1528 1529 1529 1529 1530 1529 1529 1528 1527 1525 1524 1523 1522 1520 1518 1517 1515 1513 1512 1511 1509 1508 1506 1505 1505 1504 1504 1503 1502 1502 1503
1503 1505 1508 1512 1514 1516 1518 1520 1522 1523 1524 1525 1524 1525 1525 1525 1525 1525 1524 1523 1522 1520 1518 1517 1516 1515 1513 1511 1509 1507 1505 1503 1502 1501 1499 1497 1496 1495 1494 1494 1493 1492 1491
1499 1502 1505 1508 1511 1512 1515 1518 1519 1519 1520 1520 1520 1521 1521 1520 1520 1519 1518 1517 1516 1515 1513 1512 1511 1509 1507 1505 1503 1500 1497 1495 1493 1491 1490 1489 1487 1486 1485 1484 1483 1483 1481
1495 1498 1500 1504 1507 1510 1511 1513 1514 1516 1517 1517 1517 1517 1515 1515 1513 1513 1513 1513 1512 1510 1509 1507 1505 1503 1500 1497 1494 1492 1490 1487 1484 1482 1480 1479 1477 1476 1475 1475 1474 1473 1472
1489 1493 1497 1500 1503 1505 1508 1509 1510 1512 1513 1514 1514 1515 1512 1509 1507 1506 1507 1507 1505 1503 1502 1500 1498 1496 1493 1489 1486 1483 1481 1478 1476 1473 1470 1469 1468 1467 1466 1465 1465 1463 1462
1484 1488 1492 1495 1498 1501 1503 1506 1507 1508 1509 1509 1509 1510 1509 1508 1506 1501 1499 1499 1497 1495 1493 1493 1491 1489 1485 1480 1477 1475 1472 1469 1466 1464 1461 1460 1459 1459 1458 1456 1455 1455 1454
1478 1483 1487 1490 1493 1496 1499 1501 1503 1504 1504 1505 1504 1504 1504 1504 1502 1500 1493 1490 1489 1488 1486 1484 1483 1481 1478 1473 1469 1465 1462 1459 1456 1453 1452 1450 1449 1448 1448 1447 1446 1446 1446
1473 1477 1480 1485 1489 1491 1493 1494 1497 1499 1500 1501 1501 1499 1498 1498 1496 1493 1489 1485 1481 1478 1476 1475 1475 1473 1470 1466 1462 1458 1454 1451 1448 1444 1442 1440 1438 1438 1438 1437 1437 1437 1437
1467 1472 1476 1480 1483 1486 1488 1489 1492 1495 1495 1496 1496 1494 1493 1492 1491 1487 1483 1479 1473 1469 1466 1467 1467 1465 1461 1458 1455 1452 1446 1442 1439 1435 1431 1430 1429 1428 1428 1428 1428 1428 1429
1462 1466 1472 1477 1479 1481 1484 1484 1487 1489 1491 1492 1491 1490 1488 1487 1486 1483 1480 1476 1467 1464 1461 1460 1459 1457 1455 1451 1448 1443 1438 1434 1429 1425 1422 1419 1419 1420 1421 1421 1421 1421 1422
1457 1461 1464 1469 1472 1474 1478 1480 1482 1484 1484 1485 1485 1485 1484 1482 1481 1478 1475 1473 1468 1461 1455 1453 1451 1450 1447 1442 1437 1433 1428 1424 1420 1416 1414 1411 1409 1409 1410 1412 1413 1414 1415
1450 1453 1457 1462 1467 1470 1473 1475 1476 1478 1479 1479 1479 1479 1478 1477 1475 1473 1471 1468 1465 1460 1453 1448 1447 1442 1438 1433 1430 1426 1420 1415 1411 1409 1406 1404 1401 1401 1402 1405 1406 1408 1409
1446 1448 1451 1457 1461 1464 1469 1470 1472 1473 1474 1475 1474 1474 1473 1471 1470 1468 1465 1463 1460 1457 1448 1443 1439 1436 1431 1426 1423 1419 1414 1408 1403 1400 1398 1395 1394 1394 1395 1397 1400 1400 1402
1439 1442 1448 1453 1458 1462 1466 1466 1468 1469 1470 1470 1469 1468 1468 1467 1465 1463 1459 1457 1454 1451 1445 1438 1433 1429 1424 1420 1416 1411 1407 1403 1397 1394 1391 1387 1386 1387 1387 1390 1392 1394 1396
1435 1439 1445 1452 1455 1459 1462 1463 1464 1465 1465 1465 1464 1464 1463 1461 1459 1459 1455 1452 1448 1445 1441 1434 1427 1424 1419 1415 1409 1405 1400 1396 1392 1390 1386 1382 1380 1380 1380 1383 1388 1389 1390
1432 1438 1442 1448 1452 1455 1457 1460 1460 1461 1461 1461 1460 1459 1458 1457 1455 1454 1450 1447 1444 1440 1436 1431 1424 1419 1415 1410 1406 1400 1394 1391 1389 1387 1384 1380 1377 1375 1374 1376 1382 1385 1386
1430 1434 1440 1445 1448 1451 1453 1454 1455 1456 1456 1456 1456 1455 1455 1453 1452 1449 1446 1443 1440 1437 1432 1427 1423 1417 1412 1406 1401 1397 1392 1389 1387 1385 1382 1378 1375 1372 1371 1371 1375 1379 1381
1426 1431 1436 1440 1443 1445 1448 1450 1451 1451 1452 1452 1452 1451 1451 1450 1448 1446 1443 1440 1437 1433 1429 1425 1421 1416 1410 1404 1399 1394 1392 1390 1387 1387 1382 1377 1373 1370 1368 1368 1370 1374 1376
1422 1426 1431 1435 1437 1441 1443 1444 1445 1446 1447 1448 1448 1448 1447 1446 1445 1443 1440 1437 1434 1430 1427 1424 1420 1416 1408 1402 1397 1394 1393 1392 1390 1387 1383 1378 1374 1370 1367 1365 1368 1370 1372
1417 1422 1425 1429 1432 1435 1438 1439 1440 1442 1443 1444 1445 1444 1443 1443 1441 1439 1436 1433 1430 1427 1425 1423 1420 1415 1410 1405 1400 1397 1395 1393 1391 1389 1384 1380 1376 1372 1367 1365 1367 1369 1369
1410 1416 1421 1424 1428 1431 1433 1435 1437 1439 1440 1441 1440 1439 1440 1439 1438 1436 1432 1430 1427 1425 1423 1421 1418 1414 1410 1406 1403 1400 1397 1394 1393 1391 1387 1383 1379 1376 1372 1368 1369 1372 1377
1406 1410 1415 1419 1424 1429 1431 1433 1435 1436 1436 1436 1435 1436 1436 1435 1433 1431 1429 1426 1423 1422 1419 1418 1416 1412 1408 1405 1403 1400 1398 1395 1393 1393 1391 1389 1383 1381 1381 1376 1376 1376 1380